Regional Weather Roundup
Issued by NWS

Home | Current Version | Previous Version | Text Only | Print | Product List | Glossary On
Versions: 1 2 3 4 5 6 7 8 9 10 11 12 13 14 15 16 17 18 19 20 21 22 23 24 25 26 27 28 29 30 31 32 33 34 35 36 37 38 39 40 41 42 43 44 45 46 47 48 49 50
000
ASUS43 KDMX 180601
RWRIA

WEATHER ROUNDUP FOR IOWA
NATIONAL WEATHER SERVICE DES MOINES IA
1200 AM CST WED JAN 18 2017

NOTE: "FAIR" INDICATES FEW OR NO CLOUDS BELOW 12,000 FEET WITH NO
SIGNIFICANT WEATHER AND/OR OBSTRUCTIONS TO VISIBILITY.

* - THESE STATIONS ARE NOT NWS STATIONS...THUS NOT UNDER NWS
QUALITY CONTROL.  THEY ALSO DO NOT REPORT WEATHER SUCH
AS PRECIPITATION OR FOG.

IAZ001>003-012>014-020>022-031>034-043>046-180700-
   NORTHWEST IOWA

CITY           SKY/WX    TMP DP  RH WIND       PRES   REMARKS
CARROLL *      CLOUDY    30  30 100 SW10      30.07S FOG     WCI  21
CHEROKEE *     CLOUDY    24  24 100 S3        30.03F
DENISON *      FOG       28  28 100 S6        30.05S VSB 3/4 WCI  22
LE MARS *      CLOUDY    28  27  93 S7        30.03S WCI  21
ORANGE CITY *  CLOUDY    27  27 100 S5        30.00S WCI  21
SHELDON *      CLOUDY    28  28 100 S10       29.98F WCI  19
SIOUX CITY     CLOUDY    26  25  96 SE8       30.03F FOG     WCI  18
6HR MIN TEMP:  24; 6HR MAX TEMP:  32;

SPENCER        CLOUDY    25  23  92 S7        30.01F WCI  17
6HR MIN TEMP:  25; 6HR MAX TEMP:  28;

STORM LAKE *   CLOUDY    27  27 100 SW10      30.03S WCI  17
$$

IAZ055>058-069>071-079>083-090>094-180700-
   SOUTHWEST IOWA

CITY           SKY/WX    TMP DP  RH WIND       PRES   REMARKS
ATLANTIC *     CLOUDY    30  30 100 S9        30.10F FOG     WCI  22
AUDUBON *      FOG       30  28  93 S3        30.10R VSB 3/4
CLARINDA *     CLEAR     28  28 100 S6        30.16S WCI  22
COUNCIL BLFS * CLOUDY    27  27 100 S7        30.10R WCI  19
CRESTON *      CLOUDY    28  28 100 SW8       30.13R WCI  20
HARLAN  *      CLOUDY    28  28 100 S8        30.12S FOG     WCI  20
LAMONI         CLOUDY    31  29  92 SW8       30.13R WCI  23
6HR MIN TEMP:  31; 6HR MAX TEMP:  35;

RED OAK *      CLEAR     28  28 100 S7        30.13R WCI  21
SHENANDOAH *   CLEAR     30  28  93 CALM      30.15R
$$

IAZ047>049-059>061-072>074-084-180700-
   CENTRAL IOWA

CITY           SKY/WX    TMP DP  RH WIND       PRES   REMARKS
AMES           CLOUDY    31  30  96 SW10      30.10R WCI  22
6HR MIN TEMP:  31; 6HR MAX TEMP:  32;

ANKENY *       CLOUDY    32  30  93 SW8       30.12S WCI  25
BOONE *        CLOUDY    30  30 100 SW9G16    30.07S WCI  22
CHARITON *     CLOUDY    32  30  93 SW10      30.12F WCI  24
DES MOINES     CLOUDY    32  29  88 SW13      30.12R WCI  22
6HR MIN TEMP:  32; 6HR MAX TEMP:  36; 6HR PCP: TRACE;

GRINNELL*      CLOUDY    32  32 100 W8        30.10S FOG     WCI  25
KNOXVILLE *    FOG       32  32 100 SW8G14    30.11S VSB 1/4 WCI  25
MARSHALLTOWN   FOG       31  31 100 SW9       30.08S VSB 1/2 WCI  23
6HR MIN TEMP:  31; 6HR MAX TEMP:  33;

NEWTON *       FOG       30  30 100 SW13      30.10S VSB 1/4 WCI  20
PELLA *        CLOUDY    32  31  97 SW7       30.14R FOG     WCI  25
PERRY *        CLOUDY    31  31  99 SW9       30.10R FOG     WCI  23
$$

IAZ004>006-015-016-023>025-035-036-180700-
   NORTH CENTRAL IOWA

CITY           SKY/WX    TMP DP  RH WIND       PRES   REMARKS
ALGONA *       CLOUDY    30  30 100 SW14      30.03F FOG     WCI  20
CLARION *      CLOUDY    30  30 100 SW13      30.06S WCI  20
ESTHERVILLE    CLOUDY    26  26 100 S9        30.00S FOG     WCI  17
6HR MIN TEMP:  25; 6HR MAX TEMP:  29;

FORT DODGE *   CLOUDY    28  25  86 MISG      30.07S
MASON CITY     CLOUDY    29  28  96 SW14      30.05S FOG     WCI  18
6HR MIN TEMP:  29; 6HR MAX TEMP:  32;

FOREST CITY *  CLOUDY    28  28 100 SW9       30.04S FOG     WCI  20
WEBSTER CITY * CLOUDY    30  30 100 SW12      30.05S WCI  21
IOWA FALLS *   FOG       32  31  97 SW7       30.07F VSB 1/4 WCI  25
$$

IAZ007>011-017>019-026>030-037>042-050>054-066-180700-
   NORTHEAST IOWA

CITY           SKY/WX    TMP DP  RH WIND       PRES   REMARKS
CEDAR RAPIDS   CLOUDY    32  32 100 W7        30.08S FOG     WCI  26
6HR MIN TEMP:  32; 6HR MAX TEMP:  33;

CHARLES CITY * FOG       30  30 100 SW13      30.05S VSB 1/4 WCI  20
CLINTON *      CLOUDY   N/A N/A N/A W13       30.08R HAZE
DECORAH *      FOG       32  32 100 W7        30.02S VSB 1/4 WCI  26
DUBUQUE        CLOUDY    33  33 100 W10       30.05R FOG     WCI  25
6HR MIN TEMP:  33; 6HR MAX TEMP:  33;

MONTICELLO *   CLOUDY    34  32  93 W8        30.07S FOG     WCI  27
OELWEIN *      CLOUDY    32  32 100 W10       30.06S FOG     WCI  24
WATERLOO       FOG       31  30  96 W9        30.07S VSB 1   WCI  23
6HR MIN TEMP:  31; 6HR MAX TEMP:  33;

$$

IAZ064-065-067-068-078-180700-
   EAST CENTRAL IOWA

CITY           SKY/WX    TMP DP  RH WIND       PRES   REMARKS
DAVENPORT      CLOUDY    33  32  96 W13       30.08S FOG     WCI  24
6HR MIN TEMP:  33; 6HR MAX TEMP:  34;

IOWA CITY      CLOUDY    34  33  96 W7        30.12S FOG     WCI  28
6HR MIN TEMP:  34; 6HR MAX TEMP:  35;

MUSCATINE *    CLOUDY    36  34  93 W7        30.12S FOG     WCI  30
QUAD CITIES    CLOUDY    35  32  88 W12       30.08S FOG     WCI  27
6HR MIN TEMP:  34; 6HR MAX TEMP:  36;

$$

IAZ062-063-075>077-085>089-095>099-180700-
   SOUTHEAST IOWA

CITY           SKY/WX    TMP DP  RH WIND       PRES   REMARKS
BURLINGTON     CLOUDY    36  35  96 W7        30.12R WCI  30
6HR MIN TEMP:  36; 6HR MAX TEMP:  37;

FAIRFIELD *    CLOUDY    36  34  93 SW8       30.12R WCI  29
FORT MADISON * CLOUDY    37  36  93 SW6       30.13S WCI  33
KEOKUK *       CLOUDY    37  36  93 W8        30.14R WCI  31
OSKALOOSA *    CLOUDY    32  32  99 W9        30.12S WCI  25
OTTUMWA        CLOUDY    34  30  85 W8        30.12R WCI  27
6HR MIN TEMP:  34; 6HR MAX TEMP:  36;

WASHINGTON *   CLOUDY    34  34 100 W7        30.13R FOG     WCI  28
$$

ABBREVIATIONS USED IN REMARKS
   TC - TEMPERATURES IN CELSIUS
  WCI - WIND CHILL INDEX
   HX - HEAT INDEX
  VSB - VISIBILITY
$$





USA.gov is the U.S. government's official web portal to all federal, state and local government web resources and services.